Retour au catalogue

STARLINK-3552

ActifCommunicationsVLEO
NORAD 51813·PAYLOAD·🇺🇸 United States

Lancé Feb 25, 2022 depuis Vandenberg Space Force Base

Loading…

Prochains Passages (prochaines 24 heures)

TLE

FraisSource: CelesTrak SupGP

Époque: Sep 14, 2026, 21:30 UTC

1 51813C 22017AX  26257.89631944 -.00013648  00000+0 -39041-3 0  2576
2 51813  53.1583 189.6493 0001282  96.9221 258.5499 15.35411118    10

Suivez STARLINK-3552 en temps réel avec AllMySat

Download on the App Store